Tracking 31027 objects as of 19-Jul-2025
HD Live streaming from Space Station
objects crossing your sky now

AEROCUBE 2

Track AEROCUBE 2 now!
10-day predictions
AEROCUBE 2 is classified as:


NORAD ID: 31133
Int'l Code: 2007-012R
Perigee: 632.3 km
Apogee: 733.2 km
Inclination: 98.4 °
Period: 98.3 minutes
Semi major axis: 7053 km
RCS: 0.0127 m2 (small)
Launch date: April 17, 2007
Source: United States (US)
Launch site: TYURATAM MISSILE AND SPACE COMPLEX (TTMTR)

Uplink (MHz):
Downlink (MHz): 902-928
Beacon (MHz):
Mode: 9600bps GFSK
Call sign:
Status: Inactive

Your satellite tracking list
STARLINK-31611
Track 1 satellite(s)




NASA's NSSDC Master Catalog

Two Line Element Set (TLE):
1 31133U 07012R   25199.46497151  .00000899  00000-0  16981-3 0  9998
2 31133  98.3962 170.9983 0071495 288.3849  70.9588 14.65457226971461
Source of the keplerian elements: AFSPC